CAPE
31 0 1 34 51 318 140 40 43 104 0 5 401 962 345 6 29 25 0 611 211 142 41 69 568 646 649 772 1064 1144 1429 1687 1728 1776 1741 1645 1587 1405 1364 1246 1120 1000 889 774 662 552 499 467 384
0 0 28 3 41 245 33 2 50 174 9 39 87 1364 1411 698 27 0 0 321 174 19 53 32 246 209 615 952 798 1173 1694 1829 1795 1647 1302 1193 1357 1203 1143 1127 1126 1024 613 494 495 469 454 471 441
0 0 0 0 9 231 5 1 0 256 127 41 566 1364 1197 372 2 0 85 328 5 13 39 404 135 460 349 351 789 1548 1784 1828 1557 1197 1075 972 837 807 959 909 904 648 581 552 541 503 460 435 423
0 0 0 0 0 31 2 0 210 308 147 184 1613 1538 1039 447 116 0 168 48 0 190 109 473 186 447 470 1111 1319 1588 1789 1795 1487 1085 948 799 722 699 764 683 715 666 626 589 601 618 664 777 847
0 0 0 0 1 5 51 158 509 343 507 490 1400 1581 1381 1061 782 414 76 0 0 146 3 98 302 963 975 922 1049 1318 1541 1759 1574 1070 899 783 747 721 687 686 708 753 831 900 963 1031 1134 1282 1261
0 0 0 0 0 7 73 467 760 290 725 1214 1831 1357 1029 811 200 0 0 0 22 15 19 97 605 550 1257 1152 1130 1145 1333 1454 1265 1069 896 793 706 723 756 658 606 670 1021 1220 1408 1567 1765 1957 2027
0 0 0 0 0 16 133 346 484 536 693 797 1545 1356 792 550 0 0 2 0 23 0 9 113 158 566 957 1172 1236 1258 1327 1236 1067 1027 872 798 728 660 604 284 880 977 1180 1407 1570 1717 2013 2212 2276
0 0 0 0 0 23 153 379 383 752 1106 1471 1823 1463 666 310 0 0 0 0 0 20 0 0 177 136 355 555 928 976 947 991 970 849 832 825 903 1061 898 615 986 946 1034 1247 1409 1494 1702 2012 2303
0 0 0 0 0 54 443 403 419 1306 1236 937 949 1542 771 198 0 0 0 1 0 128 0 0 0 17 30 48 618 1026 917 918 904 961 1180 1148 356 857 1058 1233 1149 930 870 930 1027 1305 1520 1589 1721
0 0 0 0 0 55 127 345 487 561 852 776 1264 1000 683 251 33 0 1 76 0 0 0 0 1 12 14 227 659 602 474 486 496 509 1076 1012 528 1404 1027 1305 1607 1515 1600 1545 1684 1861 1906 1990 1123
0 0 0 0 0 0 99 292 191 505 550 778 1211 899 528 319 238 65 0 98 62 0 0 0 436 576 96 492 725 490 486 517 717 1327 1520 1669 955 1114 410 511 1176 1637 1660 1492 1366 1434 1465 855 650
0 0 0 0 0 0 0 132 497 139 916 1045 1340 978 614 456 245 36 0 0 0 0 0 0 149 570 537 203 407 360 699 689 1040 1194 1438 1428 1545 1057 1452 1305 1306 1685 909 1220 1243 605 1328 1059 1160
0 0 0 0 0 0 0 0 631 580 716 285 887 767 547 455 274 28 1 0 0 0 1 16 361 941 1553 1335 1056 1371 1209 1043 1106 1183 1114 1318 2271 2785 2140 2271 1779 1667 1333 1068 949 952 1150 963 903
0 0 0 0 0 0 0 0 2 519 608 934 1017 587 550 242 95 67 32 7 12 4 7 21 103 902 638 1510 2063 1602 1431 1322 1164 1200 796 1044 1310 1754 1821 1928 1813 1402 776 646 576 595 952 951 757
0 0 0 0 0 0 0 0 0 975 1683 1777 1154 878 791 405 112 236 67 116 59 108 28 254 445 855 1687 2048 1863 1720 1195 755 1183 472 330 285 375 943 1025 1294 931 251 151 161 214 106 267 370 251
0 0 0 0 0 0 0 0 0 991 1687 1783 1451 1338 1170 690 348 169 77 164 362 198 743 743 546 1037 1286 1553 1642 1331 998 1017 524 255 29 28 40 90 397 470 76 38 81 108 98 44 48 83 250
0 0 0 0 0 0 0 0 0 109 1469 1505 1526 1403 1183 1041 673 432 206 281 393 507 590 810 1087 653 813 1024 1041 752 427 420 225 136 25 79 88 72 73 93 103 114 149 122 50 35 153 293 115
0 0 0 0 0 0 0 0 16 16 1004 1470 1350 1182 1194 1101 797 709 473 448 512 498 531 674 772 655 505 655 655 220 303 109 111 121 162 229 192 145 134 195 177 163 144 108 147 231 210 134 63
0 0 0 0 0 23 23 15 49 690 916 1258 1337 1145 1031 1237 1209 1015 498 343 360 524 644 759 376 554 474 453 480 364 340 381 322 330 313 292 195 157 149 187 192 201 151 154 180 116 29 39 26
0 0 0 0 0 0 19 82 103 804 1002 1264 1407 1174 822 856 1056 983 596 385 519 612 590 439 302 439 441 412 376 253 177 247 273 303 245 212 179 183 178 173 179 116 136 121 63 36 23 18 8
0 0 0 0 0 0 0 0 0 445 737 986 862 736 350 1124 1403 1005 675 766 779 718 776 784 646 496 290 219 174 159 130 128 88 98 107 98 81 49 23 13 47 61 64 33 13 9 19 30 5
0 0 0 0 0 0 0 0 0 0 221 993 680 575 821 1094 1477 900 433 420 723 770 667 613 520 421 308 248 207 204 92 40 16 16 2 0 0 8 10 22 43 43 34 32 7 0 0 0 6
0 0 0 0 0 0 0 0 0 2 40 231 1111 867 1189 1505 1098 776 574 183 270 446 554 347 336 416 331 303 229 104 1 0 0 0 0 0 0 3 0 11 0 0 0 0 0 0 0 0 0
0 0 1 3 0 0 0 0 0 0 3 3 122 752 745 1277 1080 670 516 168 160 174 305 399 386 357 360 304 72 26 6 0 0 0 0 0 0 0 0 0 0 0 0 0 0 0 0 0 0
84 105 42 40 38 0 4 1 0 0 1 0 7 98 836 814 967 574 334 343 152 14 11 85 274 354 335 181 16 0 0 0 0 0 0 0 0 0 0 0 0 0 0 0 0 0 0 0 0
2 40 73 71 84 19 70 58 1 72 19 99 96 112 820 871 845 421 178 177 323 0 0 0 21 183 194 102 5 0 0 0 0 0 0 0 0 0 0 0 0 0 0 0 4 0 0 0 0
2 3 6 25 12 10 32 43 63 249 49 119 62 179 145 589 931 347 204 288 76 26 2 0 0 20 50 38 0 0 0 0 0 0 0 0 0 0 0 0 0 0 0 0 0 0 0 0 0
5 0 7 67 69 124 103 133 54 12 6 3 5 330 844 844 755 262 152 61 101 27 3 0 0 0 12 0 0 0 0 0 0 0 0 0 0 0 0 0 0 0 0 0 1 0 0 0 0
0 0 0 37 48 76 73 113 29 3 4 1 0 23 406 399 394 270 91 63 65 72 31 0 0 0 0 0 0 0 0 0 0 0 0 0 10 14 9 3 0 0 0 0 0 0 0 0 0
0 58 48 310 72 37 21 15 0 1 3 10 4 22 28 137 108 50 1 18 1 0 0 0 0 0 0 0 0 0 0 0 0 0 0 36 47 24 8 0 0 0 0 0 0 0 0 0 0
CIN
-714 -0 -94 -267 -129 -12 -4 -30 -51 -47 -0 -1 -3 -29 -42 -32 -16 -9 -1 -71 -166 -237 -278 -214 -67 -23 -7 -0 -0 -0 -1 -1 -1 -1 -0 -0 -0 -0 -0 -0 -0 -5 -15 -32 -44 -57 -67 -72 -83
-0 -0 -138 -44 -79 -48 -22 -74 -8 -28 -21 -18 -14 -2 -25 -63 -42 -0 -0 -94 -186 -162 -251 -241 -134 -117 -14 -0 -0 -0 -0 -1 -1 -0 -0 -0 -0 -0 -0 -3 -5 -11 -44 -57 -66 -74 -80 -86 -91
-0 -0 -0 -0 -21 -42 -56 -0 -0 -26 -31 -14 -1 -18 -22 -101 -106 -0 -86 -120 -204 -130 -177 -125 -168 -65 -58 -32 -4 -0 -0 -1 -0 -0 -0 -0 -7 -15 -13 -22 -31 -46 -55 -63 -77 -86 -99 -103 -112
-0 -0 -0 -0 -0 -279 -80 -0 -32 -25 -38 -8 -19 -58 -44 -49 -83 -0 -76 -161 -0 -168 -218 -111 -151 -73 -44 -0 -1 -1 -0 -1 -0 -0 -0 -3 -22 -31 -35 -56 -61 -66 -78 -79 -83 -99 -101 -102 -103
-0 -0 -0 -0 -12 -55 -110 -115 -223 -3 -1 -0 -8 -41 -73 -42 -32 -72 -119 -0 -0 -189 -57 -228 -141 -28 -5 -0 -2 -1 -1 -1 -0 -0 -0 -11 -30 -44 -47 -66 -76 -75 -78 -85 -86 -87 -92 -94 -110
-0 -0 -0 -0 -0 -77 -88 -62 -70 -202 -186 -3 -25 -89 -86 -69 -120 -0 -0 -0 -195 -184 -91 -248 -98 -94 -3 -0 -0 -1 -1 -0 -0 -0 -7 -25 -40 -60 -69 -88 -101 -107 -91 -83 -81 -80 -78 -79 -88
-0 -0 -0 -0 -0 -8 -13 -1 -7 -89 -46 -10 -17 -49 -120 -82 -0 -0 -101 -0 -179 -0 -119 -247 -198 -89 -34 -4 -0 -0 -0 -0 -5 -16 -37 -52 -64 -76 -89 -138 -101 -106 -109 -100 -98 -92 -92 -94 -111
-0 -0 -0 -0 -0 -41 -54 -2 -4 -11 -158 -2 -17 -72 -138 -119 -0 -0 -0 -0 -0 -205 -0 -0 -189 -196 -133 -85 -27 -19 -14 -12 -31 -48 -61 -72 -77 -75 -79 -116 -105 -115 -119 -118 -113 -119 -123 -132 -136
-0 -0 -0 -0 -0 -2 -8 -8 -5 -12 -53 -8 -10 -34 -105 -153 -0 -0 -0 -67 -0 -128 -0 -0 -0 -71 -167 -178 -90 -44 -54 -53 -56 -63 -57 -87 -46 -69 -48 -63 -101 -127 -142 -140 -133 -131 -152 -152 -153
-0 -0 -0 -0 -0 -8 -8 -1 -10 -36 -22 -20 -27 -38 -102 -164 -251 -0 -51 -149 -0 -0 -0 -0 -21 -69 -48 -73 -89 -86 -98 -100 -100 -80 -48 -94 -53 -21 -6 -51 -100 -112 -117 -113 -107 -122 -129 -127 -86
-0 -0 -0 -0 -0 -0 -57 -22 -54 -10 -5 -3 -56 -92 -129 -149 -152 -201 -0 -137 -185 -0 -0 -0 -51 -49 -57 -15 -53 -53 -47 -54 -41 -2 -2 -12 -16 -21 -56 -62 -93 -98 -129 -70 -87 -99 -85 -41 -67
-0 -0 -0 -0 -0 -0 -0 -60 -369 -44 -46 -56 -21 -92 -156 -155 -146 -241 -0 -0 -0 -0 -0 -0 -109 -45 -14 -16 -24 -30 -6 -14 -9 -19 -12 -31 -30 -54 -27 -23 -23 -47 -25 -17 -18 -26 -41 -46 -42
-0 -0 -0 -0 -0 -0 -0 -0 -129 -31 -24 -40 -58 -51 -133 -127 -128 -232 -26 -0 -0 -0 -60 -165 -71 -32 -5 -9 -13 -7 -7 -6 -25 -19 -23 -18 -18 -15 -17 -18 -36 -27 -44 -32 -34 -33 -50 -63 -62
-0 -0 -0 -0 -0 -0 -0 -0 -4 -312 -303 -21 -76 -99 -102 -123 -142 -164 -209 -238 -189 -72 -227 -169 -154 -43 -41 -13 -5 -13 -15 -36 -17 -30 -96 -44 -41 -42 -30 -6 -8 -20 -76 -81 -88 -107 -71 -66 -84
-0 -0 -0 -0 -0 -0 -0 -0 -0 -87 -44 -2 -52 -60 -66 -84 -102 -119 -233 -234 -254 -177 -229 -117 -57 -27 -5 -2 -3 -2 -7 -17 -15 -116 -133 -135 -130 -70 -63 -14 -41 -155 -233 -208 -228 -322 -240 -199 -227
-0 -0 -0 -0 -0 -0 -0 -0 -0 -15 -17 -31 -45 -0 -17 -42 -106 -164 -250 -231 -144 -175 -60 -53 -36 -19 -28 -12 -0 -1 -11 -19 -70 -128 -261 -209 -177 -150 -132 -106 -240 -220 -222 -189 -182 -246 -271 -213 -121
-0 -0 -0 -0 -0 -0 -0 -0 -0 -10 -25 -62 -59 -8 -5 -26 -106 -148 -222 -193 -182 -153 -118 -42 -19 -84 -52 -37 -10 -45 -76 -70 -143 -187 -214 -106 -117 -128 -159 -195 -200 -182 -217 -237 -236 -281 -240 -140 -96
-0 -0 -0 -0 -0 -0 -0 -0 -83 -4 -16 -48 -89 -60 -32 -31 -108 -124 -180 -181 -164 -162 -140 -85 -70 -124 -120 -64 -65 -142 -77 -155 -149 -175 -132 -93 -115 -141 -164 -205 -183 -202 -214 -261 -223 -187 -136 -120 -95
-0 -0 -0 -0 -0 -8 -45 -18 -22 -6 -17 -11 -4 -118 -142 -69 -28 -63 -186 -241 -225 -170 -143 -106 -155 -122 -115 -36 -37 -74 -67 -89 -118 -116 -104 -87 -111 -154 -155 -207 -161 -177 -186 -231 -210 -169 -143 -125 -100
-0 -0 -0 -0 -0 -0 -0 -4 -4 -25 -5 -10 -2 -17 -119 -135 -140 -82 -158 -217 -114 -70 -59 -120 -109 -111 -88 -78 -62 -89 -116 -135 -119 -91 -101 -107 -115 -147 -117 -131 -132 -144 -174 -159 -180 -149 -128 -65 -61
-0 -0 -0 -0 -0 -0 -0 -0 -0 -10 -15 -6 -3 -27 -37 -41 -159 -189 -178 -151 -131 -119 -94 -91 -70 -104 -76 -94 -106 -114 -104 -119 -145 -167 -199 -159 -170 -176 -72 -148 -183 -149 -135 -126 -87 -55 -81 -46 -64
-0 -0 -0 -0 -0 -0 -0 -0 -0 -0 -6 -5 -130 -178 -148 -0 -135 -187 -326 -198 -179 -123 -94 -87 -97 -71 -50 -83 -101 -84 -116 -168 -225 -291 -57 -0 -0 -209 -176 -139 -132 -126 -124 -93 -27 -0 -0 -6 -42
-0 -0 -0 -0 -0 -0 -0 -0 -0 -0 -1 -1 -12 -16 -3 -9 -28 -114 -141 -70 -141 -109 -114 -117 -116 -89 -79 -62 -72 -90 -12 -0 -0 -0 -0 -0 -0 -221 -14 -156 -0 -0 -0 -0 -0 -0 -0 -0 -0
-0 -0 -0 -0 -0 -0 -0 -0 -0 -0 -0 -1 -3 -16 -26 -21 -22 -107 -149 -145 -44 -125 -149 -116 -93 -97 -93 -84 -107 -108 -0 -0 -0 -0 -0 -0 -0 -0 -0 -0 -0 -0 -0 -0 -0 -0 -0 -0 -0
-9 -1 -0 -0 -0 -0 -0 -0 -0 -0 -0 -0 -11 -2 -19 -17 -40 -54 -67 -118 -142 -39 -75 -204 -129 -102 -98 -96 -103 -0 -0 -0 -0 -0 -0 -0 -0 -0 -0 -0 -0 -0 -0 -0 -0 -0 -0 -0 -0
-10 -3 -0 -8 -11 -51 -13 -0 -5 -7 -23 -48 -23 -12 -8 -12 -4 -11 -20 -85 -138 -0 -0 -0 -246 -145 -103 -107 -119 -0 -0 -0 -0 -0 -0 -0 -0 -0 -0 -0 -0 -0 -0 -0 -3 -0 -0 -0 -0
-17 -39 -13 -13 -26 -33 -35 -75 -47 -126 -233 -36 -90 -97 -21 -59 -185 -45 -0 -0 -157 -159 -30 -0 -0 -203 -133 -162 -0 -0 -0 -0 -0 -0 -0 -0 -0 -0 -0 -0 -0 -0 -0 -0 -0 -0 -0 -0 -0
-4 -0 -24 -19 -0 -0 -0 -7 -81 -47 -28 -157 -141 -24 -67 -30 -37 -50 -22 -50 -63 -79 -59 -0 -0 -0 -107 -0 -0 -0 -0 -0 -0 -0 -0 -0 -0 -0 -0 -0 -0 -0 -0 -0 -1 -0 -0 -0 -0
-0 -0 -0 -2 -12 -0 -0 -28 -18 -42 -27 -6 -1 -4 -40 -36 -44 -89 -74 -36 -78 -83 -56 -0 -0 -0 -0 -0 -0 -0 -0 -0 -0 -0 -0 -0 -1 -0 -1 -0 -0 -0 -0 -0 -0 -0 -0 -0 -0
-0 -0 -3 -2 -0 -7 -2 -0 -0 -2 -8 -7 -38 -6 -2 -2 -24 -82 -4 -55 -4 -0 -0 -0 -0 -0 -0 -0 -0 -0 -0 -0 -0 -0 -0 -1 -1 -0 -1 -0 -0 -0 -0 -0 -0 -0 -0 -0 -0
Wind_Speed
nan nan nan nan nan 19 26 nan nan 31 nan nan 30 32 33 nan nan nan nan 23 24 20 nan nan 15 15 15 15 15 16 14 14 13 12 12 11 8 8 6 4 4 4 4 4 5 4 3 2 1
nan nan nan nan nan 26 nan nan nan 21 nan nan nan 40 31 28 nan nan nan 26 25 nan nan nan 19 19 18 16 16 15 13 13 13 12 10 9 7 6 6 6 5 5 6 6 6 5 4 2 2
nan nan nan nan nan 23 nan nan nan 46 22 nan 26 29 20 27 nan nan nan 30 nan nan nan 18 23 20 20 19 19 16 15 13 11 10 9 8 8 7 6 6 5 6 6 5 5 4 2 1 1
nan nan nan nan nan nan nan nan 28 11 17 25 31 27 27 33 36 nan 29 nan nan 27 23 21 23 20 22 20 18 17 15 14 11 10 9 8 8 8 7 6 5 4 3 2 2 2 2 2 3
nan nan nan nan nan nan nan 54 51 25 20 20 31 24 22 17 37 32 nan nan nan 28 nan nan 21 20 20 20 18 16 14 12 12 9 9 9 8 8 7 5 4 2 2 2 3 3 3 3 6
nan nan nan nan nan nan nan 34 40 55 28 36 32 26 18 26 32 nan nan nan nan nan nan nan 21 22 21 22 19 15 14 13 10 9 9 8 8 6 5 4 2 3 5 5 5 6 4 6 7
nan nan nan nan nan nan 5 25 20 49 39 19 34 20 21 28 nan nan nan nan nan nan nan 20 22 22 24 21 19 17 15 14 11 9 8 7 7 7 6 5 3 2 4 6 5 6 5 7 8
nan nan nan nan nan nan 28 15 26 38 39 26 33 13 23 28 nan nan nan nan nan nan nan nan 25 23 21 20 20 17 15 13 11 8 7 6 6 9 10 9 7 5 3 1 4 5 7 7 8
nan nan nan nan nan nan 31 24 36 48 47 24 24 26 37 33 nan nan nan nan nan 22 nan nan nan nan nan nan 19 17 15 12 8 6 5 6 5 10 12 13 13 9 6 5 4 5 8 5 5
nan nan nan nan nan nan 20 17 39 29 37 38 46 47 37 30 nan nan nan nan nan nan nan nan nan nan nan 23 22 16 15 10 8 8 8 5 7 10 13 10 14 10 7 6 4 7 9 2 2
nan nan nan nan nan nan nan 14 41 21 35 43 40 41 36 28 19 nan nan nan nan nan nan nan 24 20 nan 22 20 15 14 10 8 8 9 5 8 8 6 9 11 10 7 8 7 3 5 11 9
nan nan nan nan nan nan nan 34 49 39 41 61 33 33 34 27 19 nan nan nan nan nan nan nan 27 21 21 18 17 15 13 12 12 12 16 8 6 3 6 10 11 7 16 13 12 12 16 13 10
nan nan nan nan nan nan nan nan 40 23 47 62 11 22 33 29 21 nan nan nan nan nan nan nan 33 25 20 14 15 12 13 12 17 15 15 10 6 12 11 14 11 13 16 15 16 15 17 12 9
nan nan nan nan nan nan nan nan nan 43 58 11 31 33 33 32 nan nan nan nan nan nan nan nan 33 29 25 16 20 16 15 16 14 17 16 11 10 14 11 12 14 16 16 16 14 17 13 13 12
nan nan nan nan nan nan nan nan nan 53 36 57 39 35 35 35 34 37 nan 35 nan 35 nan 33 33 34 26 25 23 19 20 17 18 20 16 14 14 16 12 17 18 22 14 15 16 16 14 14 14
nan nan nan nan nan nan nan nan nan 46 59 43 39 39 36 39 42 39 nan 40 35 31 31 32 33 38 33 33 25 24 25 23 22 21 nan nan nan nan 13 20 nan nan nan 19 nan nan nan nan 20
nan nan nan nan nan nan nan nan nan 26 51 45 35 35 39 44 42 40 40 37 34 33 32 28 32 39 36 36 31 32 31 26 28 26 nan nan nan nan nan nan 28 22 24 27 nan nan 27 23 26
nan nan nan nan nan nan nan nan nan nan 45 44 39 35 35 39 38 38 38 39 38 39 34 30 30 35 39 37 38 37 33 33 35 32 34 29 31 32 28 34 32 31 35 33 32 26 31 30 nan
nan nan nan nan nan nan nan nan nan 37 39 38 43 38 39 39 41 39 41 42 39 39 37 36 41 37 36 37 37 39 39 38 41 40 39 38 37 40 38 39 40 41 42 40 37 38 nan nan nan
nan nan nan nan nan nan nan nan 22 44 33 30 38 51 38 40 50 37 41 44 41 41 41 38 42 36 31 33 37 38 41 42 45 41 41 42 43 44 47 45 46 44 49 52 nan nan nan nan nan
nan nan nan nan nan nan nan nan nan 29 41 30 50 52 39 25 38 44 41 44 42 43 41 41 36 38 33 39 41 46 48 45 nan nan 45 nan nan nan nan nan nan nan nan nan nan nan nan nan nan
nan nan nan nan nan nan nan nan nan nan 26 46 45 47 61 45 36 41 47 47 46 44 39 42 42 42 36 42 40 43 nan nan nan nan nan nan nan nan nan nan nan nan nan nan nan nan nan nan nan
nan nan nan nan nan nan nan nan nan nan nan 31 40 45 47 62 56 46 40 46 47 46 44 42 47 46 47 44 43 45 nan nan nan nan nan nan nan nan nan nan nan nan nan nan nan nan nan nan nan
nan nan nan nan nan nan nan nan nan nan nan nan 20 42 46 54 62 53 51 50 50 51 49 50 51 51 48 50 nan nan nan nan nan nan nan nan nan nan nan nan nan nan nan nan nan nan nan nan nan
nan 22 nan nan nan nan nan nan nan nan nan nan nan nan 44 49 60 69 67 57 51 nan nan nan 57 56 52 53 nan nan nan nan nan nan nan nan nan nan nan nan nan nan nan nan nan nan nan nan nan
nan nan nan nan nan nan nan nan nan nan nan nan nan 40 43 35 42 72 72 38 58 nan nan nan nan 55 56 58 nan nan nan nan nan nan nan nan nan nan nan nan nan nan nan nan nan nan nan nan nan
nan nan nan nan nan nan nan nan nan 55 nan 44 nan 52 47 51 66 78 73 72 nan nan nan nan nan nan nan nan nan nan nan nan nan nan nan nan nan nan nan nan nan nan nan nan nan nan nan nan nan
nan nan nan nan nan 30 21 22 nan nan nan nan nan 56 76 76 78 75 74 nan 71 nan nan nan nan nan nan nan nan nan nan nan nan nan nan nan nan nan nan nan nan nan nan nan nan nan nan nan nan
nan nan nan nan nan nan nan 48 nan nan nan nan nan nan 58 64 65 74 nan nan nan nan nan nan nan nan nan nan nan nan nan nan nan nan nan nan nan nan nan nan nan nan nan nan nan nan nan nan nan
nan nan nan 37 nan nan nan nan nan nan nan nan nan nan nan 67 68 nan nan nan nan nan nan nan nan nan nan nan nan nan nan nan nan nan nan nan nan nan nan nan nan nan nan nan nan nan nan nan nan
Wind_Direction
nan nan nan nan nan 215 215 nan nan 129 nan nan 247 263 271 nan nan nan nan 277 287 293 nan nan 305 310 313 310 308 303 299 291 288 282 272 269 266 266 266 242 226 212 203 202 212 221 206 215 280
nan nan nan nan nan 268 nan nan nan 130 nan nan nan 280 268 264 nan nan nan 283 283 nan nan nan 308 314 315 322 321 311 298 287 281 279 277 271 257 251 246 230 220 213 205 201 202 207 202 196 258
nan nan nan nan nan 252 nan nan nan 110 286 nan 275 255 266 285 nan nan nan 280 nan nan nan 299 312 314 317 325 326 320 304 287 279 280 272 263 259 250 241 243 232 227 219 201 196 198 188 153 113
nan nan nan nan nan nan nan nan 77 71 270 285 277 267 269 290 294 nan 288 nan nan 284 291 301 310 314 317 321 327 320 309 299 290 282 276 266 257 240 238 233 230 233 238 235 179 177 143 123 103
nan nan nan nan nan nan nan 353 50 324 272 271 284 290 281 295 284 293 nan nan nan 284 nan nan 308 308 311 316 316 315 312 307 301 292 279 273 259 246 236 235 227 170 175 143 149 134 121 94 95
nan nan nan nan nan nan nan 360 258 252 159 283 281 300 294 306 303 nan nan nan nan nan nan nan 304 308 308 310 308 305 306 304 309 293 283 275 270 270 270 255 213 147 133 126 128 121 118 99 91
nan nan nan nan nan nan 187 276 291 303 355 291 301 296 308 322 nan nan nan nan nan nan nan 304 307 309 304 308 307 304 298 303 308 306 299 297 309 320 325 287 233 188 152 138 138 116 99 88 72
nan nan nan nan nan nan 170 275 288 265 226 253 293 322 321 323 nan nan nan nan nan nan nan nan 314 317 322 316 311 307 304 303 310 320 330 343 357 341 333 324 301 266 262 199 146 127 110 87 79
nan nan nan nan nan nan 276 289 284 271 300 294 276 309 315 315 nan nan nan nan nan 287 nan nan nan nan nan nan 319 320 323 325 329 338 25 25 352 335 327 312 309 313 328 343 14 68 79 76 80
nan nan nan nan nan nan 254 272 270 263 273 276 260 284 304 314 nan nan nan nan nan nan nan nan nan nan nan 324 320 330 333 336 340 344 328 10 359 285 302 307 310 321 343 338 14 63 75 80 359
nan nan nan nan nan nan nan 253 239 291 272 274 276 288 304 313 317 nan nan nan nan nan nan nan 302 325 nan 321 321 321 321 325 322 298 290 292 251 281 290 280 282 286 322 298 317 340 288 239 221
nan nan nan nan nan nan nan 255 259 132 250 244 262 284 303 314 317 nan nan nan nan nan nan nan 305 315 322 324 316 320 313 305 297 309 301 303 282 275 264 247 283 289 267 262 264 257 262 251 244
nan nan nan nan nan nan nan nan 288 331 259 275 276 295 301 307 312 nan nan nan nan nan nan nan 298 304 297 287 294 286 284 285 287 290 289 274 271 263 257 251 235 241 247 245 251 255 258 253 256
nan nan nan nan nan nan nan nan nan 249 257 331 296 299 301 303 nan nan nan nan nan nan nan nan 297 296 303 298 288 277 268 272 273 267 263 263 267 266 260 269 264 256 250 251 251 251 257 260 257
nan nan nan nan nan nan nan nan nan 276 309 291 297 294 297 296 295 285 nan 294 nan 295 nan 291 298 297 299 299 285 282 276 287 276 273 268 273 267 277 278 274 268 261 255 255 258 253 256 255 251
nan nan nan nan nan nan nan nan nan 270 273 288 291 297 295 291 285 288 nan 290 291 289 284 299 300 290 280 286 287 284 276 273 279 285 nan nan nan nan 279 276 nan nan nan 268 nan nan nan nan 256
nan nan nan nan nan nan nan nan nan 272 284 285 281 283 284 280 279 281 287 289 288 287 292 295 289 291 285 281 286 278 273 280 282 291 nan nan nan nan nan nan 266 266 268 268 nan nan 260 261 259
nan nan nan nan nan nan nan nan nan nan 280 288 287 284 284 284 280 281 285 285 286 287 285 287 279 283 276 279 278 280 284 279 282 274 273 269 274 272 270 275 269 265 263 259 259 261 267 266 nan
nan nan nan nan nan nan nan nan nan 278 282 291 295 286 289 281 281 279 280 283 285 284 285 288 283 289 277 272 279 278 279 273 270 268 271 268 268 268 270 274 274 273 267 263 259 256 nan nan nan
nan nan nan nan nan nan nan nan 315 302 288 298 291 296 281 265 283 283 286 283 286 284 281 284 285 287 284 275 272 271 271 268 266 268 271 272 272 272 278 278 276 273 278 269 nan nan nan nan nan
nan nan nan nan nan nan nan nan nan 286 304 292 254 252 246 245 296 292 287 284 282 283 283 285 279 283 278 273 272 267 265 265 nan nan 278 nan nan nan nan nan nan nan nan nan nan nan nan nan nan
nan nan nan nan nan nan nan nan nan nan 273 292 297 299 316 325 304 295 288 283 280 279 275 275 274 282 277 275 275 279 nan nan nan nan nan nan nan nan nan nan nan nan nan nan nan nan nan nan nan
nan nan nan nan nan nan nan nan nan nan nan 324 332 321 315 307 308 296 292 276 274 271 268 266 272 276 273 271 270 278 nan nan nan nan nan nan nan nan nan nan nan nan nan nan nan nan nan nan nan
nan nan nan nan nan nan nan nan nan nan nan nan 302 311 310 303 299 297 290 280 271 265 261 258 259 265 267 268 nan nan nan nan nan nan nan nan nan nan nan nan nan nan nan nan nan nan nan nan nan
nan 213 nan nan nan nan nan nan nan nan nan nan nan nan 294 293 302 296 288 274 269 nan nan nan 258 260 261 263 nan nan nan nan nan nan nan nan nan nan nan nan nan nan nan nan nan nan nan nan nan
nan nan nan nan nan nan nan nan nan nan nan nan nan 252 263 289 276 271 279 252 289 nan nan nan nan 259 260 260 nan nan nan nan nan nan nan nan nan nan nan nan nan nan nan nan nan nan nan nan nan
nan nan nan nan nan nan nan nan nan 229 nan 229 nan 216 225 252 257 272 272 277 nan nan nan nan nan nan nan nan nan nan nan nan nan nan nan nan nan nan nan nan nan nan nan nan nan nan nan nan nan
nan nan nan nan nan 253 261 273 nan nan nan nan nan 218 234 251 258 260 266 nan 275 nan nan nan nan nan nan nan nan nan nan nan nan nan nan nan nan nan nan nan nan nan nan nan nan nan nan nan nan
nan nan nan nan nan nan nan 250 nan nan nan nan nan nan 246 247 254 261 nan nan nan nan nan nan nan nan nan nan nan nan nan nan nan nan nan nan nan nan nan nan nan nan nan nan nan nan nan nan nan
nan nan nan 244 nan nan nan nan nan nan nan nan nan nan nan 257 260 nan nan nan nan nan nan nan nan nan nan nan nan nan nan nan nan nan nan nan nan nan nan nan nan nan nan nan nan nan nan nan nan